Location: Paddlesworth
(51.1000°N, 1.1333°E)
Time: 19:21:17
(UTC+00:00)

CZ-4C R/B - Pass Details

Date: 11 May 2021
Orbit: 609 x 1393 km, 63.4° (Epoch: 20 June)

Event Time Altitude Azimuth Distance (km) Brightness Sun altitude
Rises 20:26:20 0° 315° (NW) 3,729 8.2 -7.5°
Reaches altitude 10° 20:28:45 10° 315° (NW) 2,882 6.7 -7.8°
Maximum altitude 20:35:46 89° 227° (SW) 1,213 3.0 -8.6°
Enters shadow 20:43:47 11° 139° (SE) 3,271 4.5 -9.5°
